| time (UTC) | temp F | wind direction | speed knots | gust knots | rain 1hr in | rain 24hr in | rain mn in | humidity % | barometer mb |
| 20260504050306 | 41 | 255 | 0.0 | 0.0 | 0.00 | 0.00 | 0.00 | 86 | 1016.5 |
| 20260504045805 | 41 | 255 | 0.0 | 1.7 | 0.00 | 0.00 | 0.00 | 86 | 1016.6 |
| 20260504044805 | 41 | 255 | 0.9 | 1.7 | 0.00 | 0.00 | 0.00 | 86 | 1016.7 |
| 20260504043805 | 41 | 255 | 0.0 | 0.9 | 0.00 | 0.00 | 0.00 | 84 | 1016.7 |
| 20260504043305 | 41 | 255 | 0.9 | 1.7 | 0.00 | 0.00 | 0.00 | 84 | 1016.7 |
| 20260504042805 | 41 | 255 | 0.0 | 2.6 | 0.00 | 0.00 | 0.00 | 84 | 1016.6 |
| 20260504041305 | 41 | 255 | 0.9 | 2.6 | 0.00 | 0.00 | 0.00 | 85 | 1016.4 |
| 20260504040814 | 41 | 255 | 0.9 | 2.6 | 0.00 | 0.00 | 0.00 | 84 | 1016.3 |
| 20260504040306 | 42 | 255 | 0.9 | 1.7 | 0.00 | 0.00 | 0.00 | 83 | 1016.3 |
| 20260504035805 | 42 | 255 | 0.9 | 2.6 | 0.00 | 0.00 | 0.00 | 81 | 1016.5 |
| 20260504035305 | 42 | 255 | 0.9 | 2.6 | 0.00 | 0.00 | 0.00 | 80 | 1016.5 |
| 20260504034805 | 43 | 255 | 0.0 | 1.7 | 0.00 | 0.00 | 0.00 | 79 | 1016.4 |
| 20260504034305 | 43 | 255 | 0.0 | 2.6 | 0.00 | 0.00 | 0.00 | 79 | 1016.4 |
| 20260504031804 | 43 | 255 | 0.9 | 1.7 | 0.00 | 0.00 | 0.00 | 79 | 1016.2 |
| 20260504030804 | 43 | 255 | 0.0 | 0.9 | 0.00 | 0.00 | 0.00 | 80 | 1016.1 |
| 20260504025805 | 44 | 255 | 0.0 | 1.7 | 0.00 | 0.00 | 0.00 | 76 | 1016.2 |
| 20260504022305 | 45 | 255 | 0.9 | 1.7 | 0.00 | 0.00 | 0.00 | 71 | 1016.0 |
| 20260504015806 | 47 | 255 | 0.0 | 1.7 | 0.00 | 0.00 | 0.00 | 68 | 1016.1 |
| 20260504013806 | 48 | 255 | 1.7 | 1.7 | 0.00 | 0.00 | 0.00 | 66 | 1016.1 |
| 20260504013305 | 48 | 255 | 0.0 | 0.0 | 0.00 | 0.00 | 0.00 | 65 | 1016.0 |
| 20260504011805 | 48 | 255 | 0.0 | 0.0 | 0.00 | 0.00 | 0.00 | 64 | 1015.9 |
| 20260504011305 | 49 | 255 | 0.0 | 0.0 | 0.00 | 0.00 | 0.00 | 64 | 1015.9 |
| 20260504010805 | 49 | 255 | 0.0 | 0.0 | 0.00 | 0.00 | 0.00 | 62 | 1015.8 |
| 20260504004805 | 50 | 255 | 0.0 | 0.0 | 0.00 | 0.00 | 0.00 | 60 | 1015.7 |
| 20260504004305 | 50 | 255 | 0.0 | 0.0 | 0.00 | 0.00 | 0.00 | 58 | 1015.6 |
| 20260504003306 | 52 | 255 | 0.0 | 0.0 | 0.00 | 0.00 | 0.00 | 55 | 1015.5 |
| 20260504002804 | 52 | 255 | 0.0 | 0.0 | 0.00 | 0.00 | 0.00 | 54 | 1015.5 |
| 20260504002304 | 52 | 255 | 0.0 | 0.0 | 0.00 | 0.00 | 0.00 | 54 | 1015.3 |
| 20260504001805 | 52 | 255 | 0.0 | 0.0 | 0.00 | 0.00 | 0.00 | 53 | 1015.3 |
| 20260504000806 | 54 | 255 | 0.0 | 2.6 | 0.00 | 0.00 | 0.00 | 53 | 1015.1 |
| 20260503235805 | 55 | 255 | 0.9 | 1.7 | 0.00 | 0.00 | 0.00 | 47 | 1015.1 |
| 20260503235304 | 55 | 255 | 0.0 | 2.6 | 0.00 | 0.00 | 0.00 | 49 | 1015.0 |
| 20260503234805 | 56 | 255 | 0.0 | 2.6 | 0.00 | 0.00 | 0.00 | 48 | 1014.9 |
| 20260503234304 | 56 | 255 | 0.0 | 2.6 | 0.00 | 0.00 | 0.00 | 48 | 1015.0 |
| 20260503233805 | 57 | 255 | 0.9 | 4.3 | 0.00 | 0.00 | 0.00 | 45 | 1014.8 |
| 20260503232306 | 58 | 259 | 0.9 | 8.7 | 0.00 | 0.00 | 0.00 | 41 | 1014.7 |
| 20260503231805 | 59 | 264 | 4.3 | 8.7 | 0.00 | 0.00 | 0.00 | 38 | 1014.8 |
| 20260503230305 | 60 | 299 | 1.7 | 10.4 | 0.00 | 0.00 | 0.00 | 38 | 1014.8 |
| 20260503225805 | 60 | 260 | 5.2 | 12.2 | 0.00 | 0.00 | 0.00 | 37 | 1014.8 |
| 20260503225305 | 60 | 231 | 6.1 | 12.2 | 0.00 | 0.00 | 0.00 | 36 | 1014.8 |
| 20260503224805 | 60 | 274 | 4.3 | 10.4 | 0.00 | 0.00 | 0.00 | 36 | 1014.9 |
| 20260503223804 | 61 | 242 | 2.6 | 7.0 | 0.00 | 0.00 | 0.00 | 36 | 1014.8 |
| 20260503223305 | 61 | 250 | 2.6 | 7.0 | 0.00 | 0.00 | 0.00 | 36 | 1014.8 |
| 20260503222806 | 61 | 288 | 2.6 | 6.1 | 0.00 | 0.00 | 0.00 | 39 | 1014.8 |
| 20260503222304 | 61 | 268 | 2.6 | 7.0 | 0.00 | 0.00 | 0.00 | 36 | 1014.8 |
| 20260503220804 | 61 | 269 | 4.3 | 13.0 | 0.00 | 0.00 | 0.00 | 34 | 1014.9 |
| 20260503220304 | 61 | 285 | 5.2 | 10.4 | 0.00 | 0.00 | 0.00 | 35 | 1014.9 |
| 20260503215304 | 61 | 287 | 3.5 | 13.9 | 0.00 | 0.00 | 0.00 | 34 | 1014.8 |
| 20260503214304 | 61 | 273 | 5.2 | 13.9 | 0.00 | 0.00 | 0.00 | 35 | 1014.9 |
| 20260503212806 | 62 | 306 | 2.6 | 13.9 | 0.00 | 0.00 | 0.00 | 33 | 1014.9 |
| 20260503212305 | 62 | 284 | 6.1 | 13.9 | 0.00 | 0.00 | 0.00 | 33 | 1014.8 |
| 20260503204805 | 62 | 283 | 6.1 | 13.9 | 0.00 | 0.00 | 0.00 | 35 | 1015.0 |
| 20260503203805 | 61 | 269 | 4.3 | 12.2 | 0.00 | 0.00 | 0.00 | 36 | 1015.0 |
| 20260503203304 | 61 | 288 | 2.6 | 13.0 | 0.00 | 0.00 | 0.00 | 37 | 1015.0 |
| 20260503195805 | 62 | 246 | 6.1 | 13.9 | 0.00 | 0.00 | 0.00 | 35 | 1015.3 |
| 20260503195305 | 61 | 322 | 4.3 | 17.4 | 0.00 | 0.00 | 0.00 | 37 | 1015.4 |
| 20260503194806 | 61 | 315 | 7.8 | 17.4 | 0.00 | 0.00 | 0.00 | 37 | 1015.5 |
| 20260503194305 | 61 | 277 | 3.5 | 13.9 | 0.00 | 0.00 | 0.00 | 36 | 1015.5 |
| 20260503193805 | 60 | 270 | 4.3 | 11.3 | 0.00 | 0.00 | 0.00 | 37 | 1015.6 |
| 20260503190805 | 60 | 248 | 5.2 | 13.9 | 0.00 | 0.00 | 0.00 | 40 | 1015.8 |
| 20260503190305 | 59 | 262 | 7.8 | 13.9 | 0.00 | 0.00 | 0.00 | 37 | 1015.9 |
| 20260503185804 | 60 | 285 | 6.1 | 10.4 | 0.00 | 0.00 | 0.00 | 39 | 1016.0 |
| 20260503185305 | 60 | 281 | 3.5 | 14.8 | 0.00 | 0.00 | 0.00 | 41 | 1016.0 |
| 20260503184806 | 60 | 263 | 5.2 | 14.8 | 0.00 | 0.00 | 0.00 | 38 | 1016.1 |
| 20260503184305 | 59 | 183 | 5.2 | 14.8 | 0.00 | 0.00 | 0.00 | 39 | 1016.1 |
| 20260503183806 | 59 | 270 | 5.2 | 10.4 | 0.00 | 0.00 | 0.00 | 38 | 1016.2 |
| 20260503182805 | 59 | 342 | 4.3 | 14.8 | 0.00 | 0.00 | 0.00 | 38 | 1016.4 |
| 20260503182305 | 59 | 329 | 5.2 | 11.3 | 0.00 | 0.00 | 0.00 | 41 | 1016.4 |
| 20260503180806 | 59 | 263 | 4.3 | 13.9 | 0.00 | 0.00 | 0.00 | 39 | 1016.4 |
| 20260503180305 | 58 | 263 | 7.8 | 17.4 | 0.00 | 0.00 | 0.00 | 38 | 1016.4 |
| 20260503175805 | 59 | 263 | 7.8 | 17.4 | 0.00 | 0.00 | 0.00 | 39 | 1016.5 |
| 20260503174804 | 57 | 252 | 4.3 | 15.6 | 0.00 | 0.00 | 0.00 | 40 | 1016.6 |
| 20260503174305 | 58 | 314 | 4.3 | 15.6 | 0.00 | 0.00 | 0.00 | 38 | 1016.7 |
| 20260503173804 | 59 | 291 | 7.8 | 15.6 | 0.00 | 0.00 | 0.00 | 38 | 1016.6 |
| 20260503173305 | 58 | 286 | 2.6 | 13.0 | 0.00 | 0.00 | 0.00 | 40 | 1016.4 |
| 20260503172805 | 58 | 309 | 5.2 | 17.4 | 0.00 | 0.00 | 0.00 | 41 | 1016.4 |
| 20260503171305 | 57 | 237 | 6.1 | 13.0 | 0.00 | 0.00 | 0.00 | 40 | 1016.7 |
| 20260503170304 | 58 | 286 | 3.5 | 11.3 | 0.00 | 0.00 | 0.00 | 39 | 1016.6 |
| 20260503140306 | 50 | 303 | 3.5 | 7.8 | 0.00 | 0.00 | 0.00 | 53 | 1017.6 |
| 20260503131305 | 47 | 299 | 2.6 | 13.0 | 0.00 | 0.00 | 0.00 | 58 | 1017.4 |
| 20260503130305 | 47 | 321 | 4.3 | 13.9 | 0.00 | 0.00 | 0.00 | 59 | 1017.3 |
| 20260503110805 | 42 | 267 | 5.2 | 12.2 | 0.00 | 0.00 | 0.00 | 71 | 1016.4 |
| 20260503110305 | 41 | 299 | 3.5 | 10.4 | 0.00 | 0.00 | 0.00 | 71 | 1016.3 |
| 20260503090304 | 41 | 268 | 1.7 | 10.4 | 0.00 | 0.00 | 0.00 | 71 | 1014.7 |
| 20260503080806 | 42 | 300 | 2.6 | 7.0 | 0.00 | 0.00 | 0.00 | 71 | 1014.4 |
| 20260503080305 | 42 | 277 | 2.6 | 8.7 | 0.00 | 0.00 | 0.00 | 71 | 1014.4 |
| 20260503072804 | 42 | 295 | 1.7 | 7.0 | 0.00 | 0.00 | 0.00 | 71 | 1014.0 |
| 20260503072305 | 43 | 291 | 2.6 | 7.8 | 0.00 | 0.00 | 0.00 | 71 | 1014.0 |
| 20260503071805 | 43 | 272 | 2.6 | 7.8 | 0.00 | 0.00 | 0.00 | 70 | 1014.0 |
| 20260503071304 | 43 | 310 | 2.6 | 7.0 | 0.00 | 0.00 | 0.00 | 70 | 1014.0 |